Regional Weather Roundup
Issued by NWS Jackson, KY

Home | Current Version | Previous Version | Graphics & Text | Print | Product List | Glossary On
Versions: 1 2 3 4 5 6 7 8 9 10 11 12 13 14 15 16 17 18 19 20 21 22 23 24 25 26 27
000
ASUS43 KJKL 250810
RWRJKL

EAST KENTUCKY HOURLY WEATHER ROUNDUP
NATIONAL WEATHER SERVICE JACKSON KY
400 AM EDT FRI MAY 25 2018

NOTE: "FAIR" INDICATES FEW OR NO CLOUDS BELOW 12,000 FEET WITH
NO SIGNIFICANT WEATHER AND/OR OBSTRUCTIONS TO VISIBILITY.

* THESE REPORTS ARE NOT UNDER NWS QUALITY CONTROL AND MAY NOT
  REPORT WEATHER SUCH AS PRECIPITATION AND FOG.

KYZ079-080-083-085-087-088-110-112-115-119-120-250900
...EASTERN KENTUCKY...

CITY           SKY/WX    TMP DP  RH WIND       PRES   REMARKS
JACKSON          N/A     69  61  75 CALM      30.08S
LONDON           N/A     65  62  90 CALM      30.07S
SOMERSET*      MOCLDY    63  63 100 MISG      30.06F
MONTICELLO*      N/A     65  63  93 W9        30.06F
WILLIAMSBURG*    N/A     64  64 100 CALM      30.07F
MIDDLESBORO*   RAIN      69  69 100 CALM      30.09S
HARLAN APT*    CLOUDY    68  64  86 CALM      30.11R
PIKE CO APT*     N/A     70  62  76 S3        30.09S
BIG SANDY APT*   N/A     70  63  78 S5        30.08S
MOREHEAD APT*    N/A     63  57  82 CALM      30.07S
ASHLAND*         N/A     61  61 100 N15G21    30.05S
$$

KYZ035-036-041-042-044-050-067-078-099-250900
...CENTRAL KENTUCKY...

CITY           SKY/WX    TMP DP  RH WIND       PRES   REMARKS
MT STERLING*     N/A     61  59  94 CALM      30.07F
FLEMING/MASON*   N/A     59  58  95 CALM      30.06F
DANVILLE*        N/A     61  59  94 CALM      30.06F
LEXINGTON        N/A     63  58  83 CALM      30.05F
FRANKFORT        N/A     61  57  87 CALM      30.04F
LOUISVILLE       N/A     68  58  70 VRB3      30.03F
LEBANON*         N/A     63  63 100 CALM      30.04F
GLASGOW*         N/A     64  61  92 CALM      30.03S
BOWLING GREEN    N/A     67  65  93 CALM      30.02F
$$

KYZ091>093-OHZ055-061-077-WVZ005-015-034-035-042-250900
...SOUTHERN OHIO/WEST VIRGINIA...

CITY           SKY/WX    TMP DP  RH WIND       PRES   REMARKS
COVINGTON        N/A     61  54  77 CALM      30.05S
COLUMBUS         N/A     59  54  83 CALM      30.06S
DAYTON           N/A     59  53  80 CALM      30.07S
WILMINGTON       N/A     56  55  97 CALM      30.06S
HUNTINGTON       N/A     64  60  87 CALM      30.05S
CHARLESTON       N/A     64  63  96 CALM      30.07S
PINEVILLE*       N/A     60  59  96 MISG      30.18S FOG
BECKLEY          N/A     63  56  78 S6        30.16S
BLUEFIELD        N/A     63  59  87 VRB5      30.17F
LOGAN CO APT*    N/A     70  61  73 CALM      30.10S
$$

VAZ002-007-008-TNZ017-027-036-066-071-250900
...SOUTHWEST VIRGINIA/EAST TENNESSEE...

CITY           SKY/WX    TMP DP  RH WIND       PRES   REMARKS
WISE*            N/A     64  61  88 CALM      30.17S
JONESVILLE*    CLOUDY    66  64  94 CALM      30.13S
ABINGDON*        N/A     65  62  91 CALM      30.15R
BRISTOL          N/A     64  63  96 CALM      30.11F
MORRISTOWN*    PTSUNNY   72  66  83 CALM      30.08S
SEVIERVILLE*   SUNNY     68  68 100 CALM      30.08R
KNOXVILLE        N/A     73  66  78 CALM      30.06S
LAFOLLETTE*    PTSUNNY   70  68  94 CALM      30.11S
OAK RIDGE        N/A     74  68  81 CALM      30.08S
CROSSVILLE       N/A     67  65  93 S3        30.11S
NASHVILLE      MOCLDY    70  65  84 CALM      30.02F
$$

...KEY TO REMARKS...
VSB - VISIBILITY IN MILES
WCI - WIND CHILL INDEX
HX  - HEAT INDEX

$$




USA.gov is the U.S. government's official web portal to all federal, state and local government web resources and services.